Year,Month,Day,Hour,Minute,Value (Times are PST for temperature in C)
2017,05,28,00,00,14.90
2017,05,28,00,01,14.90
2017,05,28,00,02,14.80
2017,05,28,00,03,14.80
2017,05,28,00,04,14.80
2017,05,28,00,05,14.70
2017,05,28,00,06,14.70
2017,05,28,00,07,14.60
2017,05,28,00,08,14.60
2017,05,28,00,09,14.60
2017,05,28,00,10,14.50
2017,05,28,00,11,14.50
2017,05,28,00,12,14.40
2017,05,28,00,13,14.40
2017,05,28,00,14,14.30
2017,05,28,00,15,14.20
2017,05,28,00,16,14.20
2017,05,28,00,17,14.20
2017,05,28,00,18,14.10
2017,05,28,00,19,14.10
2017,05,28,00,20,14.10
2017,05,28,00,21,14.10
2017,05,28,00,22,14.10
2017,05,28,00,23,14.10
2017,05,28,00,24,14.10
2017,05,28,00,25,14.00
2017,05,28,00,26,14.00
2017,05,28,00,27,14.00
2017,05,28,00,28,13.90
2017,05,28,00,29,13.90
2017,05,28,00,30,13.80
2017,05,28,00,31,13.80
2017,05,28,00,32,13.70
2017,05,28,00,33,13.70
2017,05,28,00,34,13.60
2017,05,28,00,35,13.60
2017,05,28,00,36,13.60
2017,05,28,00,37,13.50
2017,05,28,00,38,13.50
2017,05,28,00,39,13.50
2017,05,28,00,40,13.40
2017,05,28,00,41,13.40
2017,05,28,00,42,13.40
2017,05,28,00,43,13.50
2017,05,28,00,44,13.50
2017,05,28,00,45,13.60
2017,05,28,00,46,13.60
2017,05,28,00,47,13.70
2017,05,28,00,48,13.70
2017,05,28,00,49,13.70
2017,05,28,00,50,13.70
2017,05,28,00,51,13.80
2017,05,28,00,52,13.80
2017,05,28,00,53,13.80
2017,05,28,00,54,13.80
2017,05,28,00,55,13.70
2017,05,28,00,56,13.80
2017,05,28,00,57,13.80
2017,05,28,00,58,13.80
2017,05,28,00,59,13.70
2017,05,28,01,00,13.70
2017,05,28,01,01,13.70
2017,05,28,01,02,13.70
2017,05,28,01,03,13.70
2017,05,28,01,04,13.60
2017,05,28,01,05,13.60
2017,05,28,01,06,13.50
2017,05,28,01,07,13.40
2017,05,28,01,08,13.30
2017,05,28,01,09,13.30
2017,05,28,01,10,13.20
2017,05,28,01,11,13.20
2017,05,28,01,12,13.20
2017,05,28,01,13,13.10
2017,05,28,01,14,13.10
2017,05,28,01,15,13.10
2017,05,28,01,16,13.00
2017,05,28,01,17,13.00
2017,05,28,01,18,13.00
2017,05,28,01,19,13.10
2017,05,28,01,20,13.10
2017,05,28,01,21,13.10
2017,05,28,01,22,13.00
2017,05,28,01,23,13.00
2017,05,28,01,24,12.90
2017,05,28,01,25,12.90
2017,05,28,01,26,12.90
2017,05,28,01,27,12.90
2017,05,28,01,28,12.90
2017,05,28,01,29,12.90
2017,05,28,01,30,12.80
2017,05,28,01,31,12.80
2017,05,28,01,32,12.80
2017,05,28,01,33,12.80
2017,05,28,01,34,12.80
2017,05,28,01,35,12.80
2017,05,28,01,36,12.80
2017,05,28,01,37,12.80
2017,05,28,01,38,12.80
2017,05,28,01,39,12.80
2017,05,28,01,40,12.80
2017,05,28,01,41,12.80
2017,05,28,01,42,12.80
2017,05,28,01,43,12.80
2017,05,28,01,44,12.80
2017,05,28,01,45,12.80
2017,05,28,01,46,12.80
2017,05,28,01,47,12.80
2017,05,28,01,48,12.80
2017,05,28,01,49,12.80
2017,05,28,01,50,12.80
2017,05,28,01,51,12.80
2017,05,28,01,52,12.80
2017,05,28,01,53,12.90
2017,05,28,01,54,12.90
2017,05,28,01,55,12.90
2017,05,28,01,56,12.90
2017,05,28,01,57,12.90
2017,05,28,01,58,12.90
2017,05,28,01,59,12.90
2017,05,28,02,00,12.90
2017,05,28,02,01,12.90
2017,05,28,02,02,12.90
2017,05,28,02,03,12.90
2017,05,28,02,04,12.90
2017,05,28,02,05,13.00
2017,05,28,02,06,13.00
2017,05,28,02,07,13.00
2017,05,28,02,08,12.90
2017,05,28,02,09,12.90
2017,05,28,02,10,12.90
2017,05,28,02,11,12.90
2017,05,28,02,12,12.90
2017,05,28,02,13,12.90
2017,05,28,02,14,12.90
2017,05,28,02,15,12.80
2017,05,28,02,16,12.80
2017,05,28,02,17,12.80
2017,05,28,02,18,12.80
2017,05,28,02,19,12.80
2017,05,28,02,20,12.80
2017,05,28,02,21,12.80
2017,05,28,02,22,12.80
2017,05,28,02,23,12.80
2017,05,28,02,24,12.70
2017,05,28,02,25,12.70
2017,05,28,02,26,12.70
2017,05,28,02,27,12.70
2017,05,28,02,28,12.70
2017,05,28,02,29,12.60
2017,05,28,02,30,12.60
2017,05,28,02,31,12.60
2017,05,28,02,32,12.60
2017,05,28,02,33,12.60
2017,05,28,02,34,12.50
2017,05,28,02,35,12.50
2017,05,28,02,36,12.50
2017,05,28,02,37,12.50
2017,05,28,02,38,12.40
2017,05,28,02,39,12.40
2017,05,28,02,40,12.40
2017,05,28,02,41,12.40
2017,05,28,02,42,12.40
2017,05,28,02,43,12.40
2017,05,28,02,44,12.30
2017,05,28,02,45,12.30
2017,05,28,02,46,12.30
2017,05,28,02,47,12.30
2017,05,28,02,48,12.30
2017,05,28,02,49,12.30
2017,05,28,02,50,12.30
2017,05,28,02,51,12.30
2017,05,28,02,52,12.20
2017,05,28,02,53,12.20
2017,05,28,02,54,12.20
2017,05,28,02,55,12.20
2017,05,28,02,56,12.20
2017,05,28,02,57,12.20
2017,05,28,02,58,12.20
2017,05,28,02,59,12.20
2017,05,28,03,00,12.20
2017,05,28,03,01,12.10
2017,05,28,03,02,12.10
2017,05,28,03,03,12.10
2017,05,28,03,04,12.10
2017,05,28,03,05,12.10
2017,05,28,03,06,12.10
2017,05,28,03,07,12.00
2017,05,28,03,08,12.00
2017,05,28,03,09,12.00
2017,05,28,03,10,12.00
2017,05,28,03,11,12.00
2017,05,28,03,12,12.00
2017,05,28,03,13,11.90
2017,05,28,03,14,11.90
2017,05,28,03,15,11.90
2017,05,28,03,16,11.90
2017,05,28,03,17,11.90
2017,05,28,03,18,11.90
2017,05,28,03,19,11.90
2017,05,28,03,20,11.90
2017,05,28,03,21,11.90
2017,05,28,03,22,11.90
2017,05,28,03,23,11.90
2017,05,28,03,24,11.90
2017,05,28,03,25,11.90
2017,05,28,03,26,11.90
2017,05,28,03,27,11.90
2017,05,28,03,28,11.90
2017,05,28,03,29,11.90
2017,05,28,03,30,11.90
2017,05,28,03,31,11.90
2017,05,28,03,32,11.90
2017,05,28,03,33,11.90
2017,05,28,03,34,11.90
2017,05,28,03,35,11.90
2017,05,28,03,36,11.90
2017,05,28,03,37,11.90
2017,05,28,03,38,11.90
2017,05,28,03,39,11.90
2017,05,28,03,40,11.90
2017,05,28,03,41,11.90
2017,05,28,03,42,11.90
2017,05,28,03,43,11.90
2017,05,28,03,44,11.90
2017,05,28,03,45,11.80
2017,05,28,03,46,11.80
2017,05,28,03,47,11.80
2017,05,28,03,48,11.80
2017,05,28,03,49,11.80
2017,05,28,03,50,11.70
2017,05,28,03,51,11.70
2017,05,28,03,52,11.70
2017,05,28,03,53,11.70
2017,05,28,03,54,11.60
2017,05,28,03,55,11.60
2017,05,28,03,56,11.60
2017,05,28,03,57,11.60
2017,05,28,03,58,11.70
2017,05,28,03,59,11.70
2017,05,28,04,00,11.70
2017,05,28,04,01,11.70
2017,05,28,04,02,11.70
2017,05,28,04,03,11.70
2017,05,28,04,04,11.70
2017,05,28,04,05,11.70
2017,05,28,04,06,11.70
2017,05,28,04,07,11.70
2017,05,28,04,08,11.70
2017,05,28,04,09,11.70
2017,05,28,04,10,11.70
2017,05,28,04,11,11.70
2017,05,28,04,12,11.70
2017,05,28,04,13,11.70
2017,05,28,04,14,11.70
2017,05,28,04,15,11.70
2017,05,28,04,16,11.70
2017,05,28,04,17,11.70
2017,05,28,04,18,11.70
2017,05,28,04,19,11.60
2017,05,28,04,20,11.60
2017,05,28,04,21,11.60
2017,05,28,04,22,11.60
2017,05,28,04,23,11.60
2017,05,28,04,24,11.50
2017,05,28,04,25,11.50
2017,05,28,04,26,11.50
2017,05,28,04,27,11.50
2017,05,28,04,28,11.40
2017,05,28,04,29,11.40
2017,05,28,04,30,11.40
2017,05,28,04,31,11.40
2017,05,28,04,32,11.40
2017,05,28,04,33,11.40
2017,05,28,04,34,11.40
2017,05,28,04,35,11.40
2017,05,28,04,36,11.40
2017,05,28,04,37,11.40
2017,05,28,04,38,11.40
2017,05,28,04,39,11.40
2017,05,28,04,40,11.40
2017,05,28,04,41,11.30
2017,05,28,04,42,11.30
2017,05,28,04,43,11.30
2017,05,28,04,44,11.30
2017,05,28,04,45,11.30
2017,05,28,04,46,11.30
2017,05,28,04,47,11.30
2017,05,28,04,48,11.20
2017,05,28,04,49,11.20
2017,05,28,04,50,11.20
2017,05,28,04,51,11.20
2017,05,28,04,52,11.10
2017,05,28,04,53,11.10
2017,05,28,04,54,11.10
2017,05,28,04,55,11.00
2017,05,28,04,56,11.00
2017,05,28,04,57,11.00
2017,05,28,04,58,11.00
2017,05,28,04,59,11.00
2017,05,28,05,00,11.00
2017,05,28,05,01,11.00
2017,05,28,05,02,11.00
2017,05,28,05,03,11.00
2017,05,28,05,04,10.90
2017,05,28,05,05,10.90
2017,05,28,05,06,10.90
2017,05,28,05,07,10.90
2017,05,28,05,08,11.00
2017,05,28,05,09,11.00
2017,05,28,05,10,11.00
2017,05,28,05,11,11.00
2017,05,28,05,12,11.00
2017,05,28,05,13,10.90
2017,05,28,05,14,10.90
2017,05,28,05,15,10.90
2017,05,28,05,16,10.90
2017,05,28,05,17,10.90
2017,05,28,05,18,10.90
2017,05,28,05,19,10.90
2017,05,28,05,20,10.90
2017,05,28,05,21,10.90
2017,05,28,05,22,10.90
2017,05,28,05,23,10.90
2017,05,28,05,24,10.90
2017,05,28,05,25,10.90
2017,05,28,05,26,10.90
2017,05,28,05,27,10.80
2017,05,28,05,28,10.80
2017,05,28,05,29,10.80
2017,05,28,05,30,10.80
2017,05,28,05,31,10.80
2017,05,28,05,32,10.80
2017,05,28,05,33,10.80
2017,05,28,05,34,10.80
2017,05,28,05,35,10.80
2017,05,28,05,36,10.80
2017,05,28,05,37,10.80
2017,05,28,05,38,10.80
2017,05,28,05,39,10.80
2017,05,28,05,40,10.80
2017,05,28,05,41,10.70
2017,05,28,05,42,10.70
2017,05,28,05,43,10.70
2017,05,28,05,44,10.70
2017,05,28,05,45,10.70
2017,05,28,05,46,10.70
2017,05,28,05,47,10.70
2017,05,28,05,48,10.70
2017,05,28,05,49,10.70
2017,05,28,05,50,10.70
2017,05,28,05,51,10.70
2017,05,28,05,52,10.70
2017,05,28,05,53,10.70
2017,05,28,05,54,10.70
2017,05,28,05,55,10.70
2017,05,28,05,56,10.70
2017,05,28,05,57,10.70
2017,05,28,05,58,10.70
2017,05,28,05,59,10.70
2017,05,28,06,00,10.70
2017,05,28,06,01,10.70
2017,05,28,06,02,10.70
2017,05,28,06,03,10.70
2017,05,28,06,04,10.70
2017,05,28,06,05,10.80
2017,05,28,06,06,10.80
2017,05,28,06,07,10.80
2017,05,28,06,08,10.80
2017,05,28,06,09,10.80
2017,05,28,06,10,10.80
2017,05,28,06,11,10.80
2017,05,28,06,12,10.80
2017,05,28,06,13,10.80
2017,05,28,06,14,10.80
2017,05,28,06,15,10.90
2017,05,28,06,16,10.90
2017,05,28,06,17,10.90
2017,05,28,06,18,10.90
2017,05,28,06,19,11.00
2017,05,28,06,20,11.00
2017,05,28,06,21,11.00
2017,05,28,06,22,11.10
2017,05,28,06,23,11.10
2017,05,28,06,24,11.10
2017,05,28,06,25,11.10
2017,05,28,06,26,11.10
2017,05,28,06,27,11.20
2017,05,28,06,28,11.20
2017,05,28,06,29,11.20
2017,05,28,06,30,11.20
2017,05,28,06,31,11.30
2017,05,28,06,32,11.30
2017,05,28,06,33,11.30
2017,05,28,06,34,11.40
2017,05,28,06,35,11.40
2017,05,28,06,36,11.40
2017,05,28,06,37,11.50
2017,05,28,06,38,11.50
2017,05,28,06,39,11.60
2017,05,28,06,40,11.60
2017,05,28,06,41,11.60
2017,05,28,06,42,11.70
2017,05,28,06,43,11.70
2017,05,28,06,44,11.80
2017,05,28,06,45,11.80
2017,05,28,06,46,11.80
2017,05,28,06,47,11.80
2017,05,28,06,48,11.80
2017,05,28,06,49,11.80
2017,05,28,06,50,11.90
2017,05,28,06,51,11.90
2017,05,28,06,52,11.90
2017,05,28,06,53,11.90
2017,05,28,06,54,11.90
2017,05,28,06,55,12.00
2017,05,28,06,56,12.00
2017,05,28,06,57,12.00
2017,05,28,06,58,12.10
2017,05,28,06,59,12.10
2017,05,28,07,00,12.20
2017,05,28,07,01,12.20
2017,05,28,07,02,12.30
2017,05,28,07,03,12.30
2017,05,28,07,04,12.40
2017,05,28,07,05,12.50
2017,05,28,07,06,12.60
2017,05,28,07,07,12.60
2017,05,28,07,08,12.70
2017,05,28,07,09,12.70
2017,05,28,07,10,12.80
2017,05,28,07,11,12.80
2017,05,28,07,12,12.80
2017,05,28,07,13,12.90
2017,05,28,07,14,13.00
2017,05,28,07,15,13.10
2017,05,28,07,16,13.20
2017,05,28,07,17,13.20
2017,05,28,07,18,13.30
2017,05,28,07,19,13.40
2017,05,28,07,20,13.50
2017,05,28,07,21,13.60
2017,05,28,07,22,13.80
2017,05,28,07,23,13.90
2017,05,28,07,24,14.00
2017,05,28,07,25,14.00
2017,05,28,07,26,14.10
2017,05,28,07,27,14.20
2017,05,28,07,28,14.20
2017,05,28,07,29,14.30
2017,05,28,07,30,14.40
2017,05,28,07,31,14.50
2017,05,28,07,32,14.60
2017,05,28,07,33,14.60
2017,05,28,07,34,14.70
2017,05,28,07,35,14.70
2017,05,28,07,36,14.80
2017,05,28,07,37,14.80
2017,05,28,07,38,14.80
2017,05,28,07,39,14.90
2017,05,28,07,40,14.90
2017,05,28,07,41,15.00
2017,05,28,07,42,15.00
2017,05,28,07,43,15.10
2017,05,28,07,44,15.20
2017,05,28,07,45,15.30
2017,05,28,07,46,15.40
2017,05,28,07,47,15.40
2017,05,28,07,48,15.60
2017,05,28,07,49,15.60
2017,05,28,07,50,15.70
2017,05,28,07,51,15.80
2017,05,28,07,52,15.90
2017,05,28,07,53,15.90
2017,05,28,07,54,15.90
2017,05,28,07,55,16.00
2017,05,28,07,56,16.00
2017,05,28,07,57,16.00
2017,05,28,07,58,16.10
2017,05,28,07,59,16.10
2017,05,28,08,00,16.10
2017,05,28,08,01,16.10
2017,05,28,08,02,16.20
2017,05,28,08,03,16.20
2017,05,28,08,04,16.30
2017,05,28,08,05,16.30
2017,05,28,08,06,16.40
2017,05,28,08,07,16.50
2017,05,28,08,08,16.50
2017,05,28,08,09,16.60
2017,05,28,08,10,16.60
2017,05,28,08,11,16.70
2017,05,28,08,12,16.70
2017,05,28,08,13,16.80
2017,05,28,08,14,16.80
2017,05,28,08,15,16.90
2017,05,28,08,16,17.00
2017,05,28,08,17,17.10
2017,05,28,08,18,17.10
2017,05,28,08,19,17.20
2017,05,28,08,20,17.20
2017,05,28,08,21,17.30
2017,05,28,08,22,17.30
2017,05,28,08,23,17.40
2017,05,28,08,24,17.40
2017,05,28,08,25,17.50
2017,05,28,08,26,17.60
2017,05,28,08,27,17.60
2017,05,28,08,28,17.70
2017,05,28,08,29,17.80
2017,05,28,08,30,17.80
2017,05,28,08,31,17.90
2017,05,28,08,32,18.00
2017,05,28,08,33,18.00
2017,05,28,08,34,18.10
2017,05,28,08,35,18.20
2017,05,28,08,36,18.30
2017,05,28,08,37,18.40
2017,05,28,08,38,18.50
2017,05,28,08,39,18.60
2017,05,28,08,40,18.70
2017,05,28,08,41,18.80
2017,05,28,08,42,18.90
2017,05,28,08,43,19.00
2017,05,28,08,44,19.00
2017,05,28,08,45,19.10
2017,05,28,08,46,19.20
2017,05,28,08,47,19.30
2017,05,28,08,48,19.30
2017,05,28,08,49,19.40
2017,05,28,08,50,19.50
2017,05,28,08,51,19.50
2017,05,28,08,52,19.60
2017,05,28,08,53,19.70
2017,05,28,08,54,19.80
2017,05,28,08,55,19.80
2017,05,28,08,56,19.80
2017,05,28,08,57,19.90
2017,05,28,08,58,19.90
2017,05,28,08,59,20.00
2017,05,28,09,00,20.10
2017,05,28,09,01,20.20
2017,05,28,09,02,20.20
2017,05,28,09,03,20.30
2017,05,28,09,04,20.30
2017,05,28,09,05,20.30
2017,05,28,09,06,20.40
2017,05,28,09,07,20.40
2017,05,28,09,08,20.50
2017,05,28,09,09,20.50
2017,05,28,09,10,20.50
2017,05,28,09,11,20.50
2017,05,28,09,12,20.50
2017,05,28,09,13,20.50
2017,05,28,09,14,20.50
2017,05,28,09,15,20.40
2017,05,28,09,16,20.50
2017,05,28,09,17,20.50
2017,05,28,09,18,20.60
2017,05,28,09,19,20.60
2017,05,28,09,20,20.70
2017,05,28,09,21,20.70
2017,05,28,09,22,20.80
2017,05,28,09,23,20.80
2017,05,28,09,24,20.80
2017,05,28,09,25,20.80
2017,05,28,09,26,20.90
2017,05,28,09,27,20.90
2017,05,28,09,28,20.90
2017,05,28,09,29,21.00
2017,05,28,09,30,21.10
2017,05,28,09,31,21.20
2017,05,28,09,32,21.30
2017,05,28,09,33,21.30
2017,05,28,09,34,21.40
2017,05,28,09,35,21.50
2017,05,28,09,36,21.50
2017,05,28,09,37,21.60
2017,05,28,09,38,21.60
2017,05,28,09,39,21.70
2017,05,28,09,40,21.70
2017,05,28,09,41,21.70
2017,05,28,09,42,21.70
2017,05,28,09,43,21.80
2017,05,28,09,44,21.80
2017,05,28,09,45,21.90
2017,05,28,09,46,21.90
2017,05,28,09,47,21.90
2017,05,28,09,48,21.80
2017,05,28,09,49,21.70
2017,05,28,09,50,21.40
2017,05,28,09,51,21.10
2017,05,28,09,52,20.90
2017,05,28,09,53,20.70
2017,05,28,09,54,20.40
2017,05,28,09,55,20.20
2017,05,28,09,56,20.00
2017,05,28,09,57,19.80
2017,05,28,09,58,19.60
2017,05,28,09,59,19.50
2017,05,28,10,00,19.40
2017,05,28,10,01,19.40
2017,05,28,10,02,19.30
2017,05,28,10,03,19.20
2017,05,28,10,04,19.10
2017,05,28,10,05,18.90
2017,05,28,10,06,18.80
2017,05,28,10,07,18.80
2017,05,28,10,08,18.70
2017,05,28,10,09,18.70
2017,05,28,10,10,18.60
2017,05,28,10,11,18.60
2017,05,28,10,12,18.50
2017,05,28,10,13,18.50
2017,05,28,10,14,18.50
2017,05,28,10,15,18.50
2017,05,28,10,16,18.50
2017,05,28,10,17,18.50
2017,05,28,10,18,18.50
2017,05,28,10,19,18.60
2017,05,28,10,20,18.60
2017,05,28,10,21,18.50
2017,05,28,10,22,18.40
2017,05,28,10,23,18.40
2017,05,28,10,24,18.40
2017,05,28,10,25,18.40
2017,05,28,10,26,18.40
2017,05,28,10,27,18.40
2017,05,28,10,28,18.40
2017,05,28,10,29,18.40
2017,05,28,10,30,18.50
2017,05,28,10,31,18.60
2017,05,28,10,32,18.60
2017,05,28,10,33,18.60
2017,05,28,10,34,18.70
2017,05,28,10,35,18.80
2017,05,28,10,36,18.90
2017,05,28,10,37,19.00
2017,05,28,10,38,19.00
2017,05,28,10,39,19.10
2017,05,28,10,40,19.20
2017,05,28,10,41,19.30
2017,05,28,10,42,19.40
2017,05,28,10,43,19.40
2017,05,28,10,44,19.40
2017,05,28,10,45,19.40
2017,05,28,10,46,19.40
2017,05,28,10,47,19.50
2017,05,28,10,48,19.50
2017,05,28,10,49,19.60
2017,05,28,10,50,19.60
2017,05,28,10,51,19.70
2017,05,28,10,52,19.70
2017,05,28,10,53,19.70
2017,05,28,10,54,19.70
2017,05,28,10,55,19.70
2017,05,28,10,56,19.70
2017,05,28,10,57,19.70
2017,05,28,10,58,19.70
2017,05,28,10,59,19.70
2017,05,28,11,00,19.70
2017,05,28,11,01,19.70
2017,05,28,11,02,19.70
2017,05,28,11,03,19.70
2017,05,28,11,04,19.70
2017,05,28,11,05,19.70
2017,05,28,11,06,19.70
2017,05,28,11,07,19.80
2017,05,28,11,08,19.80
2017,05,28,11,09,19.70
2017,05,28,11,10,19.80
2017,05,28,11,11,19.80
2017,05,28,11,12,19.80
2017,05,28,11,13,19.80
2017,05,28,11,14,19.80
2017,05,28,11,15,19.80
2017,05,28,11,16,19.80
2017,05,28,11,17,19.80
2017,05,28,11,18,19.70
2017,05,28,11,19,19.70
2017,05,28,11,20,19.70
2017,05,28,11,21,19.70
2017,05,28,11,22,19.70
2017,05,28,11,23,19.70
2017,05,28,11,24,19.70
2017,05,28,11,25,19.70
2017,05,28,11,26,19.70
2017,05,28,11,27,19.70
2017,05,28,11,28,19.70
2017,05,28,11,29,19.70
2017,05,28,11,30,19.80
2017,05,28,11,31,19.90
2017,05,28,11,32,19.90
2017,05,28,11,33,19.90
2017,05,28,11,34,20.00
2017,05,28,11,35,20.00
2017,05,28,11,36,20.00
2017,05,28,11,37,20.00
2017,05,28,11,38,20.10
2017,05,28,11,39,20.20
2017,05,28,11,40,20.30
2017,05,28,11,41,20.30
2017,05,28,11,42,20.40
2017,05,28,11,43,20.50
2017,05,28,11,44,20.50
2017,05,28,11,45,20.60
2017,05,28,11,46,20.60
2017,05,28,11,47,20.60
2017,05,28,11,48,20.60
2017,05,28,11,49,20.60
2017,05,28,11,50,20.60
2017,05,28,11,51,20.70
2017,05,28,11,52,20.70
2017,05,28,11,53,20.70
2017,05,28,11,54,20.80
2017,05,28,11,55,20.80
2017,05,28,11,56,20.80
2017,05,28,11,57,20.80
2017,05,28,11,58,20.90
2017,05,28,11,59,20.90
2017,05,28,12,00,20.90
2017,05,28,12,01,20.90
2017,05,28,12,02,20.90
2017,05,28,12,03,20.90
2017,05,28,12,04,20.90
2017,05,28,12,05,20.90
2017,05,28,12,06,20.80
2017,05,28,12,07,20.80
2017,05,28,12,08,20.70
2017,05,28,12,09,20.60
2017,05,28,12,10,20.60
2017,05,28,12,11,20.60
2017,05,28,12,12,20.60
2017,05,28,12,13,20.60
2017,05,28,12,14,20.60
2017,05,28,12,15,20.60
2017,05,28,12,16,20.60
2017,05,28,12,17,20.60
2017,05,28,12,18,20.50
2017,05,28,12,19,20.40
2017,05,28,12,20,20.40
2017,05,28,12,21,20.30
2017,05,28,12,22,20.30
2017,05,28,12,23,20.20
2017,05,28,12,24,20.10
2017,05,28,12,25,20.00
2017,05,28,12,26,20.00
2017,05,28,12,27,20.10
2017,05,28,12,28,20.10
2017,05,28,12,29,20.00
2017,05,28,12,30,20.00
2017,05,28,12,31,20.00
2017,05,28,12,32,20.00
2017,05,28,12,33,20.10
2017,05,28,12,34,20.10
2017,05,28,12,35,20.20
2017,05,28,12,36,20.20
2017,05,28,12,37,20.20
2017,05,28,12,38,20.20
2017,05,28,12,39,20.30
2017,05,28,12,40,20.40
2017,05,28,12,41,20.50
2017,05,28,12,42,20.50
2017,05,28,12,43,20.50
2017,05,28,12,44,20.50
2017,05,28,12,45,20.60
2017,05,28,12,46,20.70
2017,05,28,12,47,20.80
2017,05,28,12,48,20.90
2017,05,28,12,49,20.90
2017,05,28,12,50,21.00
2017,05,28,12,51,21.10
2017,05,28,12,52,21.10
2017,05,28,12,53,21.20
2017,05,28,12,54,21.20
2017,05,28,12,55,21.20
2017,05,28,12,56,21.30
2017,05,28,12,57,21.30
2017,05,28,12,58,21.40
2017,05,28,12,59,21.40
2017,05,28,13,00,21.40
2017,05,28,13,01,21.40
2017,05,28,13,02,21.40
2017,05,28,13,03,21.30
2017,05,28,13,04,21.30
2017,05,28,13,05,21.30
2017,05,28,13,06,21.30
2017,05,28,13,07,21.30
2017,05,28,13,08,21.30
2017,05,28,13,09,21.40
2017,05,28,13,10,21.40
2017,05,28,13,11,21.50
2017,05,28,13,12,21.50
2017,05,28,13,13,21.60
2017,05,28,13,14,21.50
2017,05,28,13,15,21.50
2017,05,28,13,16,21.50
2017,05,28,13,17,21.60
2017,05,28,13,18,21.70
2017,05,28,13,19,21.70
2017,05,28,13,20,21.80
2017,05,28,13,21,21.80
2017,05,28,13,22,21.80
2017,05,28,13,23,21.70
2017,05,28,13,24,21.70
2017,05,28,13,25,21.70
2017,05,28,13,26,21.60
2017,05,28,13,27,21.60
2017,05,28,13,28,21.60
2017,05,28,13,29,21.60
2017,05,28,13,30,21.60
2017,05,28,13,31,21.70
2017,05,28,13,32,21.80
2017,05,28,13,33,21.80
2017,05,28,13,34,21.80
2017,05,28,13,35,21.80
2017,05,28,13,36,21.80
2017,05,28,13,37,21.90
2017,05,28,13,38,21.90
2017,05,28,13,39,22.00
2017,05,28,13,40,22.00
2017,05,28,13,41,22.10
2017,05,28,13,42,22.20
2017,05,28,13,43,22.20
2017,05,28,13,44,22.30
2017,05,28,13,45,22.30
2017,05,28,13,46,22.40
2017,05,28,13,47,22.40
2017,05,28,13,48,22.40
2017,05,28,13,49,22.50
2017,05,28,13,50,22.60
2017,05,28,13,51,22.70
2017,05,28,13,52,22.70
2017,05,28,13,53,22.70
2017,05,28,13,54,22.80
2017,05,28,13,55,22.80
2017,05,28,13,56,22.90
2017,05,28,13,57,22.90
2017,05,28,13,58,22.90
2017,05,28,13,59,23.00
2017,05,28,14,00,23.00
2017,05,28,14,01,22.90
2017,05,28,14,02,22.90
2017,05,28,14,03,23.00
2017,05,28,14,04,23.10
2017,05,28,14,05,23.20
2017,05,28,14,06,23.30
2017,05,28,14,07,23.40
2017,05,28,14,08,23.40
2017,05,28,14,09,23.40
2017,05,28,14,10,23.30
2017,05,28,14,11,23.20
2017,05,28,14,12,23.20
2017,05,28,14,13,23.10
2017,05,28,14,14,23.00
2017,05,28,14,15,22.90
2017,05,28,14,16,22.90
2017,05,28,14,17,22.80
2017,05,28,14,18,22.80
2017,05,28,14,19,22.80
2017,05,28,14,20,22.70
2017,05,28,14,21,22.70
2017,05,28,14,22,22.70
2017,05,28,14,23,22.70
2017,05,28,14,24,22.70
2017,05,28,14,25,22.70
2017,05,28,14,26,22.70
2017,05,28,14,27,22.70
2017,05,28,14,28,22.60
2017,05,28,14,29,22.60
2017,05,28,14,30,22.70
2017,05,28,14,31,22.80
2017,05,28,14,32,22.80
2017,05,28,14,33,22.80
2017,05,28,14,34,22.90
2017,05,28,14,35,22.90
2017,05,28,14,36,22.80
2017,05,28,14,37,22.80
2017,05,28,14,38,22.70
2017,05,28,14,39,22.70
2017,05,28,14,40,22.70
2017,05,28,14,41,22.70
2017,05,28,14,42,22.70
2017,05,28,14,43,22.70
2017,05,28,14,44,22.70
2017,05,28,14,45,22.70
2017,05,28,14,46,22.70
2017,05,28,14,47,22.60
2017,05,28,14,48,22.60
2017,05,28,14,49,22.50
2017,05,28,14,50,22.50
2017,05,28,14,51,22.40
2017,05,28,14,52,22.50
2017,05,28,14,53,22.50
2017,05,28,14,54,22.50
2017,05,28,14,55,22.50
2017,05,28,14,56,22.40
2017,05,28,14,57,22.40
2017,05,28,14,58,22.40
2017,05,28,14,59,22.40
2017,05,28,15,00,22.30
2017,05,28,15,01,22.30
2017,05,28,15,02,22.30
2017,05,28,15,03,22.30
2017,05,28,15,04,22.30
2017,05,28,15,05,22.30
2017,05,28,15,06,22.30
2017,05,28,15,07,22.40
2017,05,28,15,08,22.40
2017,05,28,15,09,22.40
2017,05,28,15,10,22.40
2017,05,28,15,11,22.30
2017,05,28,15,12,22.30
2017,05,28,15,13,22.30
2017,05,28,15,14,22.40
2017,05,28,15,15,22.40
2017,05,28,15,16,22.40
2017,05,28,15,17,22.40
2017,05,28,15,18,22.40
2017,05,28,15,19,22.30
2017,05,28,15,20,22.30
2017,05,28,15,21,22.30
2017,05,28,15,22,22.30
2017,05,28,15,23,22.20
2017,05,28,15,24,22.30
2017,05,28,15,25,22.30
2017,05,28,15,26,22.30
2017,05,28,15,27,22.30
2017,05,28,15,28,22.30
2017,05,28,15,29,22.40
2017,05,28,15,30,22.40
2017,05,28,15,31,22.50
2017,05,28,15,32,22.60
2017,05,28,15,33,22.60
2017,05,28,15,34,22.60
2017,05,28,15,35,22.60
2017,05,28,15,36,22.70
2017,05,28,15,37,22.70
2017,05,28,15,38,22.80
2017,05,28,15,39,22.80
2017,05,28,15,40,22.90
2017,05,28,15,41,22.90
2017,05,28,15,42,23.00
2017,05,28,15,43,23.10
2017,05,28,15,44,23.20
2017,05,28,15,45,23.20
2017,05,28,15,46,23.20
2017,05,28,15,47,23.10
2017,05,28,15,48,23.10
2017,05,28,15,49,23.10
2017,05,28,15,50,23.10
2017,05,28,15,51,23.20
2017,05,28,15,52,23.20
2017,05,28,15,53,23.20
2017,05,28,15,54,23.20
2017,05,28,15,55,23.30
2017,05,28,15,56,23.30
2017,05,28,15,57,23.40
2017,05,28,15,58,23.40
2017,05,28,15,59,23.40
2017,05,28,16,00,23.50
2017,05,28,16,01,23.60
2017,05,28,16,02,23.70
2017,05,28,16,03,23.70
2017,05,28,16,04,23.70
2017,05,28,16,05,23.70
2017,05,28,16,06,23.60
2017,05,28,16,07,23.60
2017,05,28,16,08,23.60
2017,05,28,16,09,23.60
2017,05,28,16,10,23.70
2017,05,28,16,11,23.70
2017,05,28,16,12,23.70
2017,05,28,16,13,23.70
2017,05,28,16,14,23.60
2017,05,28,16,15,23.60
2017,05,28,16,16,23.60
2017,05,28,16,17,23.60
2017,05,28,16,18,23.60
2017,05,28,16,19,23.60
2017,05,28,16,20,23.60
2017,05,28,16,21,23.60
2017,05,28,16,22,23.70
2017,05,28,16,23,23.60
2017,05,28,16,24,23.60
2017,05,28,16,25,23.60
2017,05,28,16,26,23.50
2017,05,28,16,27,23.50
2017,05,28,16,28,23.50
2017,05,28,16,29,23.50
2017,05,28,16,30,23.50
2017,05,28,16,31,23.50
2017,05,28,16,32,23.50
2017,05,28,16,33,23.50
2017,05,28,16,34,23.50
2017,05,28,16,35,23.60
2017,05,28,16,36,23.70
2017,05,28,16,37,23.70
2017,05,28,16,38,23.80
2017,05,28,16,39,23.80
2017,05,28,16,40,23.80
2017,05,28,16,41,23.80
2017,05,28,16,42,23.80
2017,05,28,16,43,23.80
2017,05,28,16,44,23.80
2017,05,28,16,45,23.80
2017,05,28,16,46,23.90
2017,05,28,16,47,23.90
2017,05,28,16,48,23.90
2017,05,28,16,49,23.90
2017,05,28,16,50,23.90
2017,05,28,16,51,23.90
2017,05,28,16,52,23.90
2017,05,28,16,53,23.90
2017,05,28,16,54,23.80
2017,05,28,16,55,23.80
2017,05,28,16,56,23.90
2017,05,28,16,57,23.90
2017,05,28,16,58,23.90
2017,05,28,16,59,23.90
2017,05,28,17,00,23.90
2017,05,28,17,01,23.90
2017,05,28,17,02,23.90
2017,05,28,17,03,23.90
2017,05,28,17,04,24.00
2017,05,28,17,05,24.00
2017,05,28,17,06,24.10
2017,05,28,17,07,24.10
2017,05,28,17,08,24.20
2017,05,28,17,09,24.20
2017,05,28,17,10,24.30
2017,05,28,17,11,24.30
2017,05,28,17,12,24.40
2017,05,28,17,13,24.40
2017,05,28,17,14,24.40
2017,05,28,17,15,24.40
2017,05,28,17,16,24.40
2017,05,28,17,17,24.40
2017,05,28,17,18,24.40
2017,05,28,17,19,24.50